一网星座-0378星 (ONEWEB-0378 )

导读

ONEWEB-0378是英国OneWeb星座的低轨通信卫星,于2021年10月14日发射入轨。作为全球第二大低轨卫星互联网项目的组成部分,它运行在约1200公里高度的近地轨道,采用“弯管式”传输架构,通过地面关口站实现信号转发。卫星符合空间碎片减缓标准,寿命末期将自动离轨,助力OneWeb完成全球低延迟宽带互联网覆盖,为偏远地区、航海航空等场景提供高速网络服务。

Basic Information
目录编号:
49304
目录名称:
ONEWEB-0378
国际标识:
2021-090AB
轨道中心:
EARTH
卫星名称:
一网星座-0378星
卫星全名:
一网星座-0378星 (ONEWEB-0378 )
卫星状态:
在轨 (已飞行1748 天)
发射日期:
2021-10-14 UTC
国别 :
英国 (GB)
星等 :
--
Orbit Information
数据来源 国际轨道数据 AOE轨道数据
星历时间 2026-07-27T21:27:53+0800
12小时前
查看轨道信息
2026-07-28T00:00:00+0800
9小时前
查看轨道信息
半长轴 7559.907km 7559.904km
偏心率 0.0001905 0.0001733
轨道倾角 87.917° 87.918°
近地点辐角 98.888° 90.860°
升交点赤经 266.393° 266.371°
平近点角 261.246° 51.271°
近地点 1180.329km 1180.456km
远地点 1183.211km 1183.078km
周期 109.027分钟 109.027分钟
每日圈数 13.207728 13.207737
Detailed Information
平衡模式:
三轴稳定
覆盖范围:
全球
运营商:
一网卫星公司
运营商所在国:
英国
制造商(研发单位):
一网卫星公司
制造商所在国:
英国
使用方式:
暂无
Satellite Introduction
OneWeb卫星网络由648颗重约125公斤的微型卫星组成,运行在1200公里的轨道上。 每颗卫星都能够提供至少每秒8千兆位的吞吐量,以使用其高吞吐量的Ku频段有效载荷为家庭和移动平台提供互联网接入。该卫星仍在工作。
2D Orbit Map
3D Orbit Map
Orbit Altitude Analysis Chart
Orbit Inclination Analysis Chart
Orbit Comprehensive Analysis Chart
View Comprehensive Chart